Location: Sears
(37.7625°N, 100.1060°W)
Time: 05:21:07
(UTC+00:00)

X-37B - Pass Details

Date: 04 August 2021
Orbit: 381 x 393 km, 45.0° (Epoch: 29 August)

Event Time Altitude Azimuth Distance (km) Brightness Sun altitude
Exits shadow 09:57:45 34° 318° (NW) 643 1.6 -19.1°
Maximum altitude 09:58:13 37° 341° (NNW) 612 1.7 -19.0°
Drops below altitude 10° 10:01:10 10° 51° (NE) 1,397 4.7 -18.6°
Sets 10:03:20 0° 60° (ENE) 2,252 6.0 -18.3°
